Hourly Data Report for June 24, 2021

TORONTO CITY
ONTARIO
Current Station Operator: ECCC - MSC

43°40'00.000" N
79°24'00.000" W
112.50 m
6158355
71508
XTO

Download Data

Hourly Data (June 2021)
Hourly Data Report for June 24, 2021
TIME
LST
Temp Definition
°C
Dew Point Definition
°C
Rel Hum Definition
%
Precip. Amount Definition
mm

Wind Dir Definition
10's deg

Wind Spd Definition
km/h
Visibility Definition
km
Stn Press Definition
kPa
Hmdx Definition


Wind Chill Definition


Weather Definition


00:00 17.6 11.8 68 0.0       100.85     LegendNANA
01:00 17.4 12.0 70 0.0       100.87     LegendNANA
02:00 17.2 12.0 72 0.0       100.89     LegendNANA
03:00 17.4 11.3 67 0.0       100.87     LegendNANA
04:00 17.1 11.9 71 0.0       100.87     LegendNANA
05:00 16.7 12.1 74 0.0       100.87     LegendNANA
06:00 17.2 12.3 73 0.0       100.86     LegendNANA
07:00 18.2 13.1 72 0.0       100.88     LegendNANA
08:00 19.6 12.5 64 0.0       100.93     LegendNANA
09:00 21.8 12.6 56 0.0       100.92     LegendNANA
10:00 23.0 12.5 52 0.0       100.84 26   LegendNANA
11:00 23.3 10.7 45 0.0       100.81 25   LegendNANA
12:00 24.9 11.3 42 0.0       100.78 27   LegendNANA
13:00 25.3 10.8 40 0.0       100.70 27   LegendNANA
14:00 26.2 12.1 42 0.0       100.66 29   LegendNANA
15:00 26.9 11.9 39 0.0       100.62 29   LegendNANA
16:00 25.8 12.2 43 0.0       100.63 28   LegendNANA
17:00 25.4 12.0 43 0.0       100.57 28   LegendNANA
18:00 24.2 12.6 48 0.0       100.60 27   LegendNANA
19:00 24.3 12.6 48 0.0       100.60 27   LegendNANA
20:00 23.9 12.3 48 0.0       100.55 26   LegendNANA
21:00 22.9 12.9 53 0.0       100.60 26   LegendNANA
22:00 22.9 11.7 49 0.0       100.60 25   LegendNANA
23:00 22.3 12.1 52 0.0       100.58 25   LegendNANA

Notes on Data Quality.

Legend

  • E = Estimated
  • M = Missing
  • NA = Not Available*
  • [empty] = Indicates an unobserved value
Date modified: